Regional Weather Roundup
Issued by NWS Albany, NY

Home | Current Version | Previous Version | Text Only | Print | Product List | Glossary On
Versions: 1 2 3 4 5 6 7 8 9 10 11 12 13 14 15 16 17 18 19 20 21 22 23 24 25 26 27 28 29 30 31 32 33 34 35 36 37 38 39 40 41 42 43 44 45 46 47 48 49 50
573
ASUS41 KALY 030110
RWRALY

NEW YORK STATE HOURLY WEATHER ROUNDUP
NATIONAL WEATHER SERVICE ALBANY NY
800 PM EST FRI DEC 02 2016

NOTE: "FAIR" INDICATES FEW OR NO CLOUDS BELOW 12,000 FEET WITH NO
SIGNIFICANT WEATHER AND/OR NO OBSTRUCTIONS TO VISIBILITY.

NYZ032-033-038>043-046>054-057>066-NYZ062>081-082-084-030200-
EAST


CITY           SKY/WX    TMP DP  RH WIND       PRES   REMARKS
ALBANY         CLOUDY    42  29  59 W9        29.81S
GLENS FALLS    LGT RAIN  41  33  73 SW9       29.78R
POUGHKEEPSIE   CLOUDY    41  31  67 SW9       29.86F
NEWBURGH       PTCLDY    39  36  87 W17       29.88S WCI  30
MONTGOMERY     CLOUDY    41  32  70 W5        29.87S
WHITE PLAINS   MOCLDY    46  27  47 NW12      29.86S
ISLIP          MOCLDY    47  28  47 W13G21    29.86F
NEW YORK CITY  MOCLDY    48  28  46 W15G24    29.89S
CENTRAL PARK   MOCLDY    47  28  47 W13G22    29.92S
$$

NYZ005>009-017-018-044>046-055-056-030200-
CENTRAL


CITY           SKY/WX    TMP DP  RH WIND       PRES   REMARKS
FULTON         LGT RAIN  38  33  82 W9        29.87R WCI  31
SYRACUSE       LGT SNOW  33  32  96 W15       29.88R WCI  23
ROME           LGT SNOW  33  33 100 W10       29.87R FOG     WCI  25
ELMIRA         CLOUDY    39  27  62 W9        29.92R WCI  33
BINGHAMTON     LGT SNOW  33  28  81 W18       29.86R WCI  22
MONTICELLO     PTCLDY    34  30  86 W12       29.85F WCI  25
$$

NYZ026>034-041>043-087-030200-
NORTH


CITY           SKY/WX    TMP DP  RH WIND       PRES   REMARKS
WATERTOWN      CLOUDY    38  29  70 NW12      29.85R WCI  30
FORT DRUM      NOT AVBL
OGDENSBURG     MOCLDY    36  32  84 W5        29.81R WCI  32
MASSENA        CLOUDY    36  30  79 W9        29.80R WCI  29
SARANAC LAKE   CLOUDY    30  26  85 W8        29.72R WCI  22
PLATTSBURGH    CLOUDY    36  29  75 NW7       29.75R WCI  30
$$

NYZ001>004-010>016-019>021-085-030200-
WEST


CITY           SKY/WX    TMP DP  RH WIND       PRES   REMARKS
NIAGARA FALLS  CLOUDY    38  33  82 W13       29.98R WCI  30
BUFFALO        LGT RAIN  37  32  82 W16G23    29.98R WCI  28
DUNKIRK        CLOUDY    40  32  73 W17G33    30.02R WCI  31
JAMESTOWN      CLOUDY    34  28  80 W16G24    29.98R WCI  23
WELLSVILLE     FLURRIES  34  28  79 W16G29    29.92F WCI  24
ROCHESTER      LGT SNOW  34  33  96 W9        29.93R FOG     WCI  27
PENN YAN       LGT RAIN  37  30  75 W13       29.90S WCI  29
$$

             KEY
       WCI = WIND CHILL INDEX
       VSB = VISIBILITY
       HX  = HEAT INDEX
$$




USA.gov is the U.S. government's official web portal to all federal, state and local government web resources and services.